Regional Weather Roundup
Issued by NWS

Home | Current Version | Previous Version | Text Only | Print | Product List | Glossary Off
Versions: 1 2 3 4 5 6 7 8 9 10 11 12 13 14 15 16 17 18 19 20 21 22 23 24 25 26 27 28 29 30 31 32 33 34 35 36 37 38 39 40 41 42 43 44 45 46 47 48 49 50

028
ASUS44 KLIX 190010
RWRLA
LOUISIANA WEATHER ROUNDUP
NATIONAL WEATHER SERVICE NEW ORLEANS LA
700 PM CDT THU SEP 18 2014

NOTE: "FAIR" INDICATES FEW OR NO CLOUDS BELOW 12,000 FEET WITH NO
      SIGNIFICANT WEATHER AND/OR OBSTRUCTIONS TO VISIBILITY.
      SKY/WX - SKY CONDITION AND SIGNIFICANT WEATHER.
      TMP - AIR TEMPERATURE.    DP   - DEWPOINT TEMPERATURE.
      RH  - RELATIVE HUMIDITY.  PRES - PRESSURE.
      HX  - HEAT INDEX.         WCI  - WIND CHILL INDEX.

*  THESE STATIONS ARE NOT NWS OR FAA STATIONS AND ARE NOT UNDER
   NWS QUALITY CONTROL.

LAZ040-048-061>063-065-066-069-190100-
SOUTHEAST LOUISIANA

CITY           SKY/WX    TMP DP  RH WIND       PRES   REMARKS
N.O. AUDUBON     N/A     82  70  68 MISG        N/A
6HR MIN TEMP:  78; 6HR MAX TEMP:  90;

N.O. INTL ARPT CLOUDY    79  65  62 CALM      29.88R
6HR MIN TEMP:  79; 6HR MAX TEMP:  88;

N.O. LAKEFRONT CLOUDY    78  68  71 S6        29.89R
6HR MIN TEMP:  78; 6HR MAX TEMP:  88; 6HR PCP:  0.06;

N.O. DOWNTOWN* FAIR      81  66  61 SE3       29.88S
6HR MIN TEMP:  81; 6HR MAX TEMP:  90;

SLIDELL        CLOUDY    82  75  79 E3        29.88R
6HR MIN TEMP:  81; 6HR MAX TEMP:  87;

BATON ROUGE    TSTM      72  70  93 SW7       29.90R FOG
6HR MIN TEMP:  72; 6HR MAX TEMP:  87; 6HR PCP:  0.35;

BOOTHVILLE     CLOUDY    82  74  76 S5        29.89R
6HR MIN TEMP:  82; 6HR MAX TEMP:  86;

BELLE CHASSE   CLOUDY    78  68  71 SE6       29.88R
6HR MIN TEMP:  74; 6HR MAX TEMP:  88; 6HR PCP: TRACE;

BOGALUSA*      FAIR      80  70  72 CALM      29.91R
6HR MIN TEMP:  80; 6HR MAX TEMP:  87;

GALLIANO*      NOT AVBL
NEW ROADS*     FAIR      82  75  79 CALM      29.89R
6HR MIN TEMP:  81; 6HR MAX TEMP:  85;

GONZALES*      FAIR      73  73 100 CALM      29.90R
6HR MIN TEMP:  73; 6HR MAX TEMP:  87; 6HR PCP:  0.16;

HAMMOND*       CLOUDY    81  70  69 CALM      29.90S
HOUMA*         MOCLDY    81  72  74 CALM      29.88R
PORT FOURCHON* MOCLDY    81  75  83 SW7       29.92R

$$

LAZ041-044-053-054-190100-
SOUTHWEST LOUISIANA

CITY           SKY/WX    TMP DP  RH WIND       PRES   REMARKS
LAKE CHARLES   CLOUDY    76  74  93 CALM      29.88R
6HR MIN TEMP:  74; 6HR MAX TEMP:  81; 6HR PCP:  0.47;

LAFAYETTE      CLOUDY    79  78  97 CALM      29.88R
6HR MIN TEMP:  79; 6HR MAX TEMP:  84;

PATTERSON      CLOUDY    77  70  78 N3        29.91S
6HR MIN TEMP:  77; 6HR MAX TEMP:  84;

SALT POINT       N/A     83  76  79 CALM      29.88R
6HR MIN TEMP:  83; 6HR MAX TEMP:  86; 6HR PCP:  0.01;

NEW IBERIA     CLOUDY    81  76  84 CALM      29.89R
6HR MIN TEMP:  81; 6HR MAX TEMP:  86; 6HR PCP: TRACE;

CHENAULT AIRPK MOCLDY    77  75  94 CALM      29.88S

$$

LAZ027-028-190100-
CENTRAL LOUISIANA

CITY           SKY/WX    TMP DP  RH WIND       PRES   REMARKS
FORT POLK      LGT RAIN  75  74  96 W3        29.90S
6HR MIN TEMP:  75; 6HR MAX TEMP:  79; 6HR PCP:  0.05;

ALEXANDRIA INT CLOUDY    81  74  79 SW5       29.87R
6HR MIN TEMP:  81; 6HR MAX TEMP:  87;

ALEXANDRIA     CLOUDY    81  77  88 CALM      29.89R
6HR MIN TEMP:  81; 6HR MAX TEMP:  87;


$$

LAZ001-002-190100-
NORTHWEST LOUISIANA

CITY           SKY/WX    TMP DP  RH WIND       PRES   REMARKS
SHREVEPORT     CLOUDY    83  71  67 SW6       29.86F
6HR MIN TEMP:  82; 6HR MAX TEMP:  89;

BARKSDALE AFB  CLOUDY    82  71  67 S7        29.87S
6HR MIN TEMP:  82; 6HR MAX TEMP:  87;

DTN SHREVEPORT CLOUDY    82  71  69 S8        29.87R
6HR MIN TEMP:  82; 6HR MAX TEMP:  87;


$$

LAZ014-016-190100-
NORTHEAST LOUISIANA

CITY           SKY/WX    TMP DP  RH WIND       PRES   REMARKS
MONROE         CLOUDY    81  75  82 CALM      29.89R
6HR MIN TEMP:  81; 6HR MAX TEMP:  89;

TALLULAH       MOCLDY    77  69  76 CALM      29.89R
6HR MIN TEMP:  77; 6HR MAX TEMP:  89;


$$




USA.gov is the U.S. government's official web portal to all federal, state and local government web resources and services.